Preview of NWS' New Version of Forecast
This preview is not operational and should not be used for support decisions.
Latest weather observations around

Kansas City, Kansas City Downtown Airport (KMKC)

Using English Units (Switch to International System of Units)
Date/ Time (CDT) Wind (mph) Vis. (mi) Weather Sky Cond. Temp (°F) Rel. Humidity Wind Chill (°F) Heat Index (°F) Pressure Precip. (in)
Air Dwpt 6 hour Altimeter (inHg) Sea level (inHg) 1 hr 3 hr 6 hr
Max Min
May 20 01:54 N 6 10 Clear CLR 54 42     64%     30.05 30.04      
May 20 00:54 N 9 10 Clear CLR 55 44     66%     30.03 30.02      
May 19 23:54 NNW 8 10 Clear CLR 57 46     67%     30.01 30      
May 19 22:54 WNW 3 10 Clear CLR 60 47     62%     29.99 29.98      
May 19 21:54 WNW 3 10 Clear CLR 61 46     58%     29.98 29.97      
May 19 20:54 W 5 10 Clear CLR 61 45     56%     29.95 29.94      
May 19 19:54 W 7 10 Clear CLR 64 45     50%     29.93 29.92      
May 19 18:54 WNW 11 10 Mostly Clear FEW050 66 45     47%     29.91 29.9      
May 19 17:54 W 13 10 Mostly Cloudy BKN050 67 46     47%     29.91 29.9      
May 19 16:54 WNW 9 10 Mostly Cloudy BKN049 67 47     49%     29.89 29.88      
May 19 15:54 W 10 10 Mostly Cloudy BKN046 67 47     49%     29.89 29.87      
May 19 14:54 WNW 14 10 Mostly Cloudy SCT047 BKN055 68 50     53%     29.88 29.87      
May 19 13:54 WNW 11 10 Mostly Cloudy SCT041 BKN050 67 49     52%     29.86 29.84      
May 19 12:54 WNW 13 10 Cloudy BKN037 OVC047 64 49     58%     29.84 29.83     0
May 19 11:54 W 16 10 Cloudy SCT031 OVC038 64 50     60%     29.82 29.81      
May 19 11:20 W 14 10 Cloudy OVC031 63 50     63%     29.8        
May 19 10:54 NW 15 10 Mostly Cloudy BKN027 63 51     65%     29.78 29.77      
May 19 09:54 W 10 10 Mostly Cloudy BKN017 BKN024 63 54     72%     29.76 29.75   0  
May 19 09:15 WNW 11 10 Cloudy FEW013 OVC019 61 55     81%     29.73        
May 19 08:54   10 Cloudy BKN012 BKN023 OVC046 61 57     87%     29.72 29.7 0    
May 19 08:27 WNW 6 10 Cloudy SCT010 BKN019 OVC055 61 57     87%     29.69   0    
May 19 07:54 W 6 10 Cloudy OVC012 59 56     90%     29.68 29.67 0    
May 19 07:28 WSW 8 7 Light Rain OVC014 59 55     87%     29.67   0    
May 19 07:16 SW 6 10 Cloudy SCT010 OVC016 59 55     87%     29.66        
May 19 07:01 WSW 8 10 Cloudy BKN010 OVC034 58 54     87%     29.65        
May 19 06:54 SW 9 10 Cloudy SCT008 SCT013 OVC035 58 54     87%     29.65 29.64     0
May 19 06:51 SW 7 10 Cloudy SCT008 SCT013 OVC035 57 55     94%     29.65        
May 19 06:11 SW 7 10 Cloudy OVC009 58 54     87%     29.62        
May 19 05:54 SW 8 10 Cloudy OVC010 58 54     87%     29.6 29.59      
May 19 05:30 SW 10 10 Mostly Cloudy BKN010 58 54     87%     29.6        
May 19 04:54 SW 10 10 Mostly Cloudy BKN110 58 54     87%     29.58 29.56 0    
May 19 04:43 SW 10 10 Mostly Cloudy FEW015 SCT020 BKN100 59 54     83%     29.58   0    
May 19 04:22 SW 14 10 Cloudy FEW010 BKN022 OVC085 60 55     83%     29.57   0    
May 19 03:54 WSW 6 10 Light Rain FEW011 SCT019 OVC085 63 60     90%     29.55 29.54 0 0  
May 19 03:49 WSW 7 10 Light Rain SCT011 SCT019 OVC085 63 61     94%     29.55   0    
May 19 03:15 S 3 10 Cloudy BKN013 BKN070 OVC095 64 60     87%     29.55   0    
May 19 03:08 S 6 10 Light Rain SCT013 BKN070 OVC100 64 60     87%     29.56   0    
May 19 02:54 S 7 10 Cloudy BKN013 OVC070 64 60     87%     29.56 29.54      
May 19 02:13 S 8 10 Cloudy BKN011 BKN018 OVC090 64 60     87%     29.59        
May 19 01:54 NNE 5 10 Mostly Cloudy FEW013 BKN090 BKN110 64 59     84%     29.55 29.54 0    
May 19 01:52 NNE 3 10 Mostly Cloudy SCT013 BKN090 BKN110 64 59     83%     29.55   0    
May 19 01:30 SW 3 10 Light Rain BKN013 BKN031 OVC075 64 60     87%     29.59   0    
May 19 01:03 S 8 10 Partly Cloudy SCT014 SCT075 63 59     87%     29.6        
May 19 00:54 SSW 8 10 Mostly Cloudy BKN014 64 59     84%     29.6 29.58      
May 19 00:23 SSE 3 10 Cloudy BKN014 OVC085 64 60     87%     29.6        
May 18 23:54 SSW 6 10 Cloudy BKN015 OVC085 64 60     87%     29.62 29.59      
May 18 23:46 SW 8 10 Mostly Cloudy BKN015 BKN085 64 60     87%     29.62        
May 18 22:54 SSW 5 10 Clear CLR 63 60     90%     29.59 29.58      
May 18 21:54 S 7 10 Clear CLR 65 60     84%     29.6 29.58      
May 18 20:54 SE 5 10 Clear CLR 65 61     87%     29.57 29.55      
May 18 19:54 SSW 3 10 Partly Cloudy SCT050 65 61     87%     29.59 29.57      
May 18 18:58 SW 7 10 Cloudy FEW013 SCT018 OVC040 66 61     84%     29.61        
May 18 18:54 SW 8 10 Cloudy BKN013 BKN021 OVC040 66 61     84%     29.61 29.59     1
May 18 18:51 SW 8 10 Cloudy BKN013 OVC040 66 63     88%     29.61        
May 18 17:54 Calm 10 Mostly Clear FEW012 68 61     78%     29.59 29.57 0    
May 18 16:54 N 3 10 Light Rain FEW039 SCT065 OVC100 67 61     81%     29.6 29.58 0    
May 18 15:54 WNW 7 9 Light Rain SCT037 SCT070 OVC110 65 61     87%     29.61 29.59 0 1  
May 18 15:30 WSW 10 5 Light Rain and Fog/Mist SCT042 BKN050 OVC110 65 61     87%     29.67   0    
May 18 15:14 W 13 5 Thunderstorms and Rain and Fog/Mist SCT035 BKN050 OVC110 65 62     90%     29.62   0    
May 18 15:06 W 6 2 Thunderstorms and Rain and Fog/Mist SCT035 BKN050 OVC070 65 63     93%     29.62   0    
May 18 14:57 WNW 3 1.75 Heavy Rain and Fog/Mist FEW024 BKN033 OVC075 65 62     90%     29.63   0    
May 18 14:54 SW 6 3 Heavy Rain and Fog/Mist SCT027 BKN033 OVC075 65 62     90%     29.65 29.63 0    
May 18 14:43 W 7 5 Light Rain and Fog/Mist SCT033 BKN047 OVC075 65 62     90%     29.65   0    
May 18 14:38 W 3 2 Light Rain and Fog/Mist SCT033 BKN047 OVC075 65 62     90%     29.64   0    
May 18 14:26 WSW 10 1.5 Thunderstorms and Heavy Rain and Fog/Mist FEW009 BKN037 OVC046 65 61     87%     29.65   0    
May 18 14:07 WSW 7 2.5 Thunderstorms and Rain and Fog/Mist FEW009 BKN035 OVC045 65 62     90%     29.64   0    
May 18 13:54 Calm 3 Thunderstorms and Rain and Fog/Mist FEW024 OVC035 65 61     87%     29.63 29.61 0    
May 18 13:50 5 2.5 Thunderstorms and Rain and Fog/Mist FEW022 SCT028 OVC035 64 61     88%     29.61   0    
May 18 13:41 5 1 Thunderstorms and Heavy Rain and Fog/Mist SCT018 BKN028 OVC033 65 61     87%     29.63   0    
May 18 13:28 Calm 2 Thunderstorms and Rain and Fog/Mist FEW008 BKN028 OVC032 66 62     87%     29.63   0    
May 18 13:20 7 1.25 Thunderstorms and Heavy Rain and Fog/Mist FEW008 BKN032 OVC055 67 63     87%     29.65   0    
May 18 13:14 WSW 11 2 Thunderstorms and Rain and Fog/Mist FEW008 BKN020 OVC070 68 65     90%     29.66   0    
May 18 13:08   1.25 Thunderstorms and Heavy Rain and Fog/Mist FEW008 BKN034 OVC070 68 66     93%     29.66   0    
May 18 13:01 ESE 7 2.5 Thunderstorms and Heavy Rain and Fog/Mist FEW020 BKN032 OVC070 68 65     90%     29.64   0    
May 18 12:54 ESE 6 4 Thunderstorms and Rain and Fog/Mist FEW016 BKN024 OVC070 68 65     90%     29.63 29.61 0   0
May 18 12:50 ESE 7 3 Thunderstorms and Rain and Fog/Mist BKN021 BKN026 OVC070 68 64     88%     29.63   0    
May 18 12:43 6 1.25 Thunderstorms and Heavy Rain and Fog/Mist SCT014 BKN024 OVC034 68 65     90%     29.64   0    
May 18 12:30 SE 9 2 Thunderstorms and Rain BKN024 BKN032 OVC100 70 63     78%     29.62   0    
May 18 12:24 ESE 8 2.5 Light Rain FEW026 BKN032 OVC100 71 63     76%   71 29.6   0    
May 18 11:54 ESE 10 10 Cloudy OVC033 73 61     66%   73 29.64 29.62      
May 18 11:32 E 8 10 Cloudy BKN030 OVC037 73 61     66%   73 29.64        
May 18 10:54 ESE 8 10 Mostly Cloudy SCT050 BKN070 73 65     76%   74 29.66 29.64 0    
May 18 10:44 ENE 5 10 Partly Cloudy FEW039 SCT065 72 64     76%   72 29.66   0    
May 18 09:54 Calm 4 Rain SCT044 BKN055 OVC100 68 59     73%     29.69 29.67 0 0  
May 18 09:39 E 5 10 Light Rain BKN050 BKN065 OVC080 70 57     63%     29.69   0    
May 18 08:54 5 10 Mostly Cloudy BKN055 70 58     66%     29.69 29.67 0    
May 18 07:54 WNW 10 10 Cloudy OVC055 69 63     81%     29.71 29.69 0    
May 18 07:40 W 9 10 Cloudy OVC055 69 64     84%     29.73   0    
May 18 06:54 SSW 8 10 Light Rain BKN035 BKN044 OVC050 70 64     81%     29.69 29.67 0   0
May 18 05:54 SSW 9 10 Cloudy OVC035 72 59     64%   72 29.65 29.63      
May 18 04:54 S 15 10 Mostly Cloudy BKN055 73 58     59%   73 29.65 29.62      
May 18 03:54 S 14 10 Mostly Clear FEW055 72 58     61%   72 29.66 29.63      
May 18 02:54 S 15 10 Clear CLR 73 57     57%   73 29.65 29.63      
May 18 01:54 S 14 10 Mostly Clear FEW070 74 56     53%   74 29.67 29.65      
May 18 00:54 S 15 10 Clear CLR 74 55     52%   73 29.69 29.66      
May 17 23:54 S 13 10 Clear CLR 76 54     47%   75 29.7 29.67      
May 17 22:54 S 13 10 Clear CLR 78 53     42%   78 29.69 29.66      
May 17 21:54 S 14 10 Clear CLR 79 54     42%   79 29.69 29.67      
May 17 20:54 S 15 10 Clear CLR 80 55     42%   80 29.69 29.66      
May 17 19:54 S 15 10 Clear CLR 82 56     41%   82 29.69 29.66      
May 17 18:54   10 Clear CLR 83 55     38%   82 29.68 29.66      
May 17 17:54   10 Clear CLR 85 56     37%   84 29.7 29.67      
May 17 16:54 S 18 10 Mostly Clear FEW060 85 59     42%   85 29.71 29.68      
May 17 15:54   10 Mostly Clear FEW060 86 60     42%   86 29.72 29.7      
May 17 14:54 S 17 10 Partly Cloudy SCT050 86 61     43%   86 29.73 29.7      
May 17 13:54   10 Partly Cloudy FEW048 SCT070 85 64     50%   86 29.74 29.71      
May 17 12:54 S 17 10 Mostly Cloudy SCT046 BKN055 84 65     53%   86 29.76 29.73      
May 17 11:54 SSW 17 10 Clear CLR 83 64     53%   84 29.77 29.74      
May 17 10:54 S 14 10 Mostly Clear FEW055 82 64     55%   84 29.78 29.75      
May 17 09:54 SW 15 10 Clear CLR 79 63     58%   79 29.78 29.75      
May 17 08:54 SSW 15 10 Clear CLR 76 61     60%   76 29.77 29.75      
May 17 07:54 SSW 13 10 Clear CLR 73 60     64%   73 29.77 29.75      
May 17 06:54 SSW 10 10 Clear CLR 71 59     66%   71 29.76 29.74      
May 17 05:54 SSW 13 10 Clear CLR 72 59     64%   72 29.73 29.7      
May 17 04:54 SSW 13 10 Clear CLR 72 60     66%   72 29.74 29.71      
May 17 03:54 SSW 11 10 Clear CLR 74 62     66%   74 29.74 29.71      
May 17 02:54 SSW 14 10 Clear CLR 75 62     64%   75 29.75 29.72      
May 15 11:54 WNW 6 10 Mostly Cloudy FEW027 SCT034 BKN075 76 62     62%   76 29.98 29.96      
May 14 19:54 ENE 8 10 Clear   81 66     61%   83 29.78 29.75      
May 14 17:54 SSW 5 10 Clear CLR 83 65     55%   85 29.81 29.78      
May 14 10:54 W 7 10 Mostly Clear FEW034 83 68     61%   86 29.91 29.88      
May 13 20:54 S 11 10 Clear CLR 85 66     53%   87 29.87 29.84      
May 13 02:54 S 9 10 Partly Cloudy SCT065 76 64     67%   76 29.91 29.88      
May 12 09:20 NNE 8 9 Light Rain FEW090 BKN110 72 64     76%   72 29.91   0    
May 12 03:54 S 11 10 Clear CLR 75 62     64%   75 29.81 29.78      
May 11 23:54 S 15 10 Clear CLR 79 60     52%   79 29.82 29.8      
Jun 12 04:54 S 9 10 Clear CLR 74 65     74%   74 29.89 29.86      
Jun 11 15:54   10 Clear CLR 92 69     47%   97 29.79 29.76      
Jun 11 13:54 S 17 10 Clear CLR 91 71     52%   98 29.81 29.78      
Jun 11 05:54   10 Clear CLR 73 65     76%   74 29.83 29.8      
Jun 10 19:54   10 Partly Cloudy SCT042 84 69     61%   88 29.74 29.72      
Jun 10 07:54 SSW 11 10 Clear CLR 73 63     71%   73 29.83 29.81      
Jun 10 06:54 S 9 10 Clear CLR 70 61     73%     29.83 29.81      
Jun 07 13:54 ENE 7 10 Clear CLR 81 47     30%   80 30.08 30.06